FW6148 Weather Reports


Display with metric or nautical units.
time (UTC)temp
F
wind
direction
speed
MPH
gust
MPH
rain 1hr
in
rain 24hr
in
rain mn
in
humidity
%
barometer
mb
20260903193051 83 289 3.0 7.0 0.00 0.00 0.00 22 1009.6
20260903192528 83 193 3.0 7.0 0.00 0.00 0.00 22 1009.4
20260903192028 83 128 2.0 9.0 0.00 0.00 0.00 21 1009.5
20260903191550 84 215 3.0 9.0 0.00 0.00 0.00 21 1009.5
20260903191026 84 173 3.0 7.0 0.00 0.00 0.00 21 1009.4
20260903190528 84 98 3.0 9.0 0.00 0.00 0.00 21 1009.5
20260903190050 84 9 4.0 9.0 0.00 0.00 0.00 22 1009.6
20260903185525 84 86 4.0 9.0 0.00 0.00 0.00 23 1009.5
20260903185027 84 246 5.0 9.0 0.00 0.00 0.00 21 1009.7
20260903184551 84 196 3.0 12.0 0.00 0.00 0.00 21 1009.5
20260903184028 84 207 7.0 14.0 0.00 0.00 0.00 21 1009.6
20260903183526 83 0 2.0 14.0 0.00 0.00 0.00 21 1009.6
20260903183045 84 220 6.0 13.0 0.00 0.00 0.00 22 1009.7
20260903182527 84 176 4.0 11.0 0.00 0.00 0.00 22 1009.6
20260903182028 83 236 5.0 10.0 0.00 0.00 0.00 23 1009.8
20260903181554 83 158 3.0 10.0 0.00 0.00 0.00 22 1010.0
20260903181029 83 279 3.0 10.0 0.00 0.00 0.00 24 1010.0
20260903180527 83 225 3.0 10.0 0.00 0.00 0.00 23 1010.1
20260903180052 83 265 4.0 10.0 0.00 0.00 0.00 24 1010.0
20260903175526 83 294 2.0 10.0 0.00 0.00 0.00 26 1010.1
20260903175026 82 288 4.0 10.0 0.00 0.00 0.00 25 1010.1
20260903174552 82 224 5.0 10.0 0.00 0.00 0.00 24 1010.1
20260903174029 82 257 4.0 8.0 0.00 0.00 0.00 24 1010.3
20260903173526 82 272 4.0 13.0 0.00 0.00 0.00 26 1010.2
20260903173045 81 294 4.0 15.0 0.00 0.00 0.00 27 1010.2
20260903172529 81 304 5.0 15.0 0.00 0.00 0.00 26 1010.3
20260903172027 81 224 3.0 12.0 0.00 0.00 0.00 26 1010.3
20260903171557 81 288 4.0 12.0 0.00 0.00 0.00 26 1010.4
20260903171026 80 280 5.0 12.0 0.00 0.00 0.00 26 1010.3
20260903170530 81 251 5.0 12.0 0.00 0.00 0.00 26 1010.3
20260903170050 80 241 4.0 8.0 0.00 0.00 0.00 28 1010.4
20260903165529 80 286 2.0 10.0 0.00 0.00 0.00 28 1010.3
20260903165025 79 229 5.0 10.0 0.00 0.00 0.00 27 1010.2
20260903164549 79 259 3.0 9.0 0.00 0.00 0.00 27 1010.2
20260903164026 79 291 4.0 9.0 0.00 0.00 0.00 29 1010.3
20260903163529 79 203 3.0 8.0 0.00 0.00 0.00 28 1010.3
20260903163048 78 265 2.0 9.0 0.00 0.00 0.00 29 1010.2
20260903162529 78 0 2.0 9.0 0.00 0.00 0.00 29 1010.3
20260903162032 78 252 4.0 10.0 0.00 0.00 0.00 28 1010.2
20260903161553 78 219 4.0 10.0 0.00 0.00 0.00 29 1010.3
20260903161030 77 207 5.0 11.0 0.00 0.00 0.00 29 1010.3
20260903160526 77 230 3.0 11.0 0.00 0.00 0.00 31 1010.3
20260903155528 77 273 2.0 11.0 0.00 0.00 0.00 31 1010.2
20260903155029 76 360 2.0 11.0 0.00 0.00 0.00 33 1010.2
20260903154547 76 360 2.0 11.0 0.00 0.00 0.00 32 1010.3
20260903154026 76 360 5.0 10.0 0.00 0.00 0.00 33 1010.2
20260903153525 75 360 4.0 9.0 0.00 0.00 0.00 33 1010.3
20260903153045 75 360 3.0 8.0 0.00 0.00 0.00 34 1010.3
20260903152528 74 360 2.0 8.0 0.00 0.00 0.00 36 1010.3
20260903152027 72 360 2.0 5.0 0.00 0.00 0.00 38 1010.4
20260903151554 71 360 0.0 4.0 0.00 0.00 0.00 39 1010.5
20260903151027 71 360 1.0 4.0 0.00 0.00 0.00 40 1010.5
20260903150527 70 360 1.0 5.0 0.00 0.00 0.00 42 1010.6
20260903150104 69 0 2.0 5.0 0.00 0.00 0.00 44 1010.7
20260903145525 68 360 1.0 4.0 0.00 0.00 0.00 45 1010.7
20260903145026 66 0 1.0 4.0 0.00 0.00 0.00 46 1010.8
20260903144556 65 360 2.0 4.0 0.00 0.00 0.00 48 1010.9
20260903144028 64 0 1.0 4.0 0.00 0.00 0.00 51 1010.9
20260903143526 63 360 0.0 3.0 0.00 0.00 0.00 52 1010.9
20260903143048 62 0 0.0 2.0 0.00 0.00 0.00 55 1010.9
20260903142526 62 0 0.0 4.0 0.00 0.00 0.00 55 1011.0
20260903142026 61 360 1.0 4.0 0.00 0.00 0.00 53 1010.9
20260903141557 60 360 1.0 3.0 0.00 0.00 0.00 55 1010.9
20260903141025 60 0 1.0 3.0 0.00 0.00 0.00 56 1010.9
20260903140525 60 0 0.0 0.0 0.00 0.00 0.00 59 1010.9
20260903140058 60 0 0.0 0.0 0.00 0.00 0.00 59 1010.8
20260903135527 59 0 0.0 0.0 0.00 0.00 0.00 58 1010.9
20260903135029 59 0 0.0 0.0 0.00 0.00 0.00 57 1010.7
20260903134551 59 0 0.0 2.0 0.00 0.00 0.00 56 1010.8
20260903134025 60 0 0.0 2.0 0.00 0.00 0.00 56 1010.8
20260903133527 59 0 0.0 2.0 0.00 0.00 0.00 55 1010.7
20260903133058 59 0 0.0 0.0 0.00 0.00 0.00 55 1010.5
20260903132526 58 0 0.0 3.0 0.00 0.00 0.00 55 1010.6
20260903132027 58 0 0.0 3.0 0.00 0.00 0.00 56 1010.4
20260903131545 58 360 0.0 4.0 0.00 0.00 0.00 56 1010.3
20260903131025 58 0 1.0 4.0 0.00 0.00 0.00 56 1010.5
20260903130524 58 0 2.0 4.0 0.00 0.00 0.00 55 1010.7
20260903130053 58 360 2.0 4.0 0.00 0.00 0.00 53 1010.7
20260903125527 59 360 1.0 3.0 0.00 0.00 0.00 53 1010.7
20260903125026 60 360 1.0 3.0 0.00 0.00 0.00 52 1010.7
20260903124553 60 360 1.0 3.0 0.00 0.00 0.00 51 1010.7
20260903124025 61 360 0.0 2.0 0.00 0.00 0.00 51 1010.6
20260903123526 61 360 1.0 4.0 0.00 0.00 0.00 49 1010.4
20260903123051 62 0 0.0 4.0 0.00 0.00 0.00 49 1010.4
20260903122526 62 0 0.0 6.0 0.00 0.00 0.00 49 1010.6
20260903122026 62 360 0.0 6.0 0.00 0.00 0.00 48 1010.5
20260903121550 62 360 3.0 6.0 0.00 0.00 0.00 47 1010.6
20260903121025 63 360 2.0 9.0 0.00 0.00 0.00 47 1010.7
20260903120527 63 0 2.0 10.0 0.00 0.00 0.00 47 1010.7
20260903120101 63 360 5.0 12.0 0.00 0.00 0.00 47 1010.7
20260903115525 63 360 6.0 12.0 0.00 0.00 0.00 47 1010.7
20260903115027 63 360 3.0 6.0 0.00 0.00 0.00 46 1010.5
20260903114606 63 360 2.0 6.0 0.00 0.00 0.00 46 1010.5
20260903114025 64 360 2.0 6.0 0.00 0.00 0.00 45 1010.5
20260903113525 64 360 3.0 9.0 0.00 0.00 0.00 44 1010.6
20260903113044 64 360 3.0 12.0 0.00 0.00 0.00 44 1010.4
20260903112526 64 360 5.0 12.0 0.00 0.00 0.00 44 1010.6
20260903112029 64 360 6.0 12.0 0.00 0.00 0.00 44 1010.9
20260903111550 64 360 4.0 12.0 0.00 0.00 0.00 44 1010.6
20260903111028 65 360 2.0 12.0 0.00 0.00 0.00 43 1010.6
20260903110529 65 360 4.0 12.0 0.00 0.00 0.00 42 1010.6
20260903110052 65 360 6.0 11.0 0.00 0.00 0.00 42 1010.3
20260903105526 64 360 2.0 10.0 0.00 0.00 0.00 43 1010.1
20260903105029 64 360 5.0 14.0 0.00 0.00 0.00 43 1010.3
20260903104550 64 360 6.0 14.0 0.00 0.00 0.00 44 1010.1
20260903104025 63 360 5.0 13.0 0.00 0.00 0.00 44 1010.4
20260903103528 62 360 4.0 8.0 0.00 0.00 0.00 44 1010.2
20260903103046 61 0 2.0 4.0 0.00 0.00 0.00 46 1010.2
20260903102528 61 360 0.0 3.0 0.00 0.00 0.00 47 1010.0
20260903102028 62 360 1.0 3.0 0.00 0.00 0.00 45 1009.6
20260903101555 62 360 0.0 3.0 0.00 0.00 0.00 46 1009.8
20260903101026 62 0 0.0 4.0 0.00 0.00 0.00 44 1009.6
20260903100527 61 360 2.0 4.0 0.00 0.00 0.00 44 1009.4
20260903100051 61 360 1.0 3.0 0.00 0.00 0.00 46 1009.5
20260903095528 61 0 0.0 4.0 0.00 0.00 0.00 47 1009.7
20260903095026 61 360 2.0 4.0 0.00 0.00 0.00 44 1009.5
20260903094554 60 360 0.0 3.0 0.00 0.00 0.00 46 1009.4
20260903094026 61 0 0.0 0.0 0.00 0.00 0.00 45 1009.5
20260903093527 61 0 0.0 0.0 0.00 0.00 0.00 48 1009.5
20260903093101 62 0 0.0 1.0 0.00 0.00 0.00 44 1009.4
20260903092528 62 0 0.0 3.0 0.00 0.00 0.00 45 1009.6
20260903092028 63 0 1.0 3.0 0.00 0.00 0.00 45 1009.5
20260903091549 63 360 1.0 3.0 0.00 0.00 0.00 43 1009.5
20260903091028 63 360 0.0 3.0 0.00 0.00 0.00 45 1009.5
20260903090527 63 0 0.0 3.0 0.00 0.00 0.00 45 1009.6
20260903090053 63 360 2.0 4.0 0.00 0.00 0.00 42 1009.5
20260903085528 63 360 1.0 4.0 0.00 0.00 0.00 45 1009.5
20260903085030 62 360 2.0 4.0 0.00 0.00 0.00 43 1009.4
20260903084551 61 0 0.0 3.0 0.00 0.00 0.00 46 1009.4
20260903084026 62 360 1.0 3.0 0.00 0.00 0.00 47 1009.3
20260903083529 62 0 0.0 4.0 0.00 0.00 0.00 47 1009.2
20260903083046 62 0 1.0 4.0 0.00 0.00 0.00 45 1009.2
20260903082525 62 360 0.0 3.0 0.00 0.00 0.00 47 1009.0
20260903082028 62 360 0.0 3.0 0.00 0.00 0.00 44 1009.0
20260903081543 62 0 0.0 0.0 0.00 0.00 0.00 46 1009.0
20260903081025 63 0 0.0 0.0 0.00 0.00 0.00 43 1008.9
20260903080525 63 0 0.0 2.0 0.00 0.00 0.00 44 1009.0
20260903080104 63 0 0.0 4.0 0.00 0.00 0.00 43 1008.9
20260903075528 63 0 0.0 6.0 0.00 0.00 0.00 44 1008.9
20260903075025 63 360 2.0 9.0 0.00 0.00 0.00 42 1008.7
20260903074602 64 360 3.0 9.0 0.00 0.00 0.00 41 1008.6
20260903074025 64 360 2.0 8.0 0.00 0.00 0.00 42 1008.7
20260903073525 64 0 0.0 3.0 0.00 0.00 0.00 42 1008.4
20260903073055 64 0 1.0 3.0 0.00 0.00 0.00 42 1008.3
20260903072525 64 360 1.0 5.0 0.00 0.00 0.00 42 1008.3
20260903072026 64 360 1.0 5.0 0.00 0.00 0.00 44 1008.2
20260903071606 64 360 3.0 5.0 0.00 0.00 0.00 41 1008.1
20260903071027 64 0 0.0 6.0 0.00 0.00 0.00 43 1008.1
20260903070529 64 360 1.0 8.0 0.00 0.00 0.00 43 1008.1
20260903070052 64 360 4.0 8.0 0.00 0.00 0.00 41 1007.9
20260903065529 64 360 3.0 5.0 0.00 0.00 0.00 43 1008.0
20260903065026 65 360 1.0 3.0 0.00 0.00 0.00 43 1008.0
20260903064546 65 360 2.0 3.0 0.00 0.00 0.00 39 1007.9
20260903064025 65 360 0.0 3.0 0.00 0.00 0.00 40 1008.0
20260903063528 66 0 0.0 0.0 0.00 0.00 0.00 42 1008.0
20260903063044 66 0 0.0 2.0 0.00 0.00 0.00 39 1008.0
20260903062525 67 0 0.0 4.0 0.00 0.00 0.00 38 1007.9
20260903062031 68 0 1.0 4.0 0.00 0.00 0.00 40 1008.0
20260903061554 67 360 2.0 5.0 0.00 0.00 0.00 37 1007.9
20260903061029 67 360 1.0 5.0 0.00 0.00 0.00 39 1008.0
20260903060527 66 360 2.0 4.0 0.00 0.00 0.00 39 1008.0
20260903060047 66 360 1.0 5.0 0.00 0.00 0.00 39 1008.0
20260903055527 66 360 2.0 5.0 0.00 0.00 0.00 39 1007.8
20260903055027 65 360 1.0 5.0 0.00 0.00 0.00 40 1007.7
20260903054548 65 360 2.0 3.0 0.00 0.00 0.00 40 1007.7
20260903054030 65 360 1.0 4.0 0.00 0.00 0.00 43 1007.6
20260903053528 64 360 2.0 4.0 0.00 0.00 0.00 41 1007.6
20260903053056 64 360 1.0 3.0 0.00 0.00 0.00 42 1007.7
20260903052527 64 0 0.0 0.0 0.00 0.00 0.00 43 1007.8
20260903052028 65 0 0.0 0.0 0.00 0.00 0.00 43 1007.8
20260903051552 65 0 0.0 2.0 0.00 0.00 0.00 41 1007.6
20260903051028 65 0 0.0 3.0 0.00 0.00 0.00 42 1007.6
20260903050528 66 0 1.0 3.0 0.00 0.00 0.00 41 1007.7
20260903050052 66 360 0.0 3.0 0.00 0.00 0.00 39 1007.7
20260903045526 66 0 0.0 0.0 0.00 0.00 0.00 40 1007.7
20260903045028 66 0 0.0 4.0 0.00 0.00 0.00 40 1007.8
20260903044558 66 0 0.0 4.0 0.00 0.00 0.00 41 1007.8
20260903044025 66 0 2.0 4.0 0.00 0.00 0.00 41 1007.9
20260903043533 64 360 2.0 4.0 0.00 0.00 0.00 42 1007.9
20260903043052 64 360 1.0 3.0 0.00 0.00 0.00 44 1008.0
20260903042528 64 0 1.0 5.0 0.00 0.00 0.00 44 1007.9
20260903042025 63 360 2.0 5.0 0.00 0.00 0.00 44 1008.1
20260903041552 63 360 0.0 0.0 0.00 0.00 0.00 45 1008.0
20260903041028 63 0 0.0 1.0 0.00 0.00 0.00 47 1008.0
20260903040527 63 0 0.0 2.0 0.00 0.00 0.00 45 1008.1
20260903040050 63 360 0.0 3.0 0.00 0.00 0.00 45 1008.1
20260903035528 63 0 1.0 3.0 0.00 0.00 0.00 45 1008.0
20260903035025 63 0 1.0 2.0 0.00 0.00 0.00 45 1008.1
20260903034550 63 0 0.0 0.0 0.00 0.00 0.00 45 1008.1
20260903034026 63 0 0.0 2.0 0.00 0.00 0.00 45 1008.1
20260903033529 63 0 0.0 2.0 0.00 0.00 0.00 44 1008.0
20260903033057 64 360 0.0 2.0 0.00 0.00 0.00 43 1008.1
20260903032529 65 360 0.0 4.0 0.00 0.00 0.00 42 1007.9
20260903032025 66 0 0.0 5.0 0.00 0.00 0.00 43 1007.9
20260903031622 65 360 3.0 5.0 0.00 0.00 0.00 40 1007.8
20260903031027 65 360 1.0 5.0 0.00 0.00 0.00 41 1007.8
20260903030529 65 360 3.0 5.0 0.00 0.00 0.00 41 1007.8
20260903030054 65 360 1.0 4.0 0.00 0.00 0.00 40 1007.7
20260903025525 64 360 2.0 4.0 0.00 0.00 0.00 41 1007.8
20260903025026 65 360 1.0 4.0 0.00 0.00 0.00 42 1007.7
20260903024556 65 360 0.0 2.0 0.00 0.00 0.00 41 1007.7
20260903024025 66 360 0.0 2.0 0.00 0.00 0.00 40 1007.6
20260903023532 67 0 0.0 3.0 0.00 0.00 0.00 39 1007.6
20260903023051 67 0 1.0 3.0 0.00 0.00 0.00 39 1007.5
20260903022529 67 0 0.0 5.0 0.00 0.00 0.00 38 1007.5
20260903022029 68 0 1.0 5.0 0.00 0.00 0.00 37 1007.3
20260903021549 69 360 2.0 4.0 0.00 0.00 0.00 35 1007.2
20260903021026 69 360 2.0 4.0 0.00 0.00 0.00 35 1007.3
20260903020525 71 360 1.0 4.0 0.00 0.00 0.00 35 1007.1
20260903020052 71 360 2.0 4.0 0.00 0.00 0.00 33 1006.8
20260903015526 72 360 2.0 4.0 0.00 0.00 0.00 33 1006.7
20260903015028 74 0 0.0 3.0 0.00 0.00 0.00 31 1006.6
20260903014558 75 0 1.0 4.0 0.00 0.00 0.00 30 1006.6
20260903014028 77 232 2.0 4.0 0.00 0.00 0.00 27 1006.7
20260903013528 78 0 0.0 4.0 0.00 0.00 0.00 27 1006.8
20260903013048 80 0 1.0 4.0 0.00 0.00 0.00 25 1006.7
20260903012530 81 0 0.0 2.0 0.00 0.00 0.00 24 1006.7
20260903012027 82 0 0.0 5.0 0.00 0.00 0.00 23 1006.7
20260903011548 83 0 0.0 6.0 0.00 0.00 0.00 25 1006.7
20260903011028 83 360 3.0 6.0 0.00 0.00 0.00 22 1006.6
20260903010526 83 116 2.0 5.0 0.00 0.00 0.00 22 1006.6
20260903010049 84 74 2.0 5.0 0.00 0.00 0.00 22 1006.7
20260903005526 84 101 1.0 7.0 0.00 0.00 0.00 22 1006.6
20260903005027 84 74 3.0 7.0 0.00 0.00 0.00 21 1006.6
20260903004553 85 43 2.0 4.0 0.00 0.00 0.00 23 1006.5
20260903004028 86 319 1.0 4.0 0.00 0.00 0.00 21 1006.5
20260903003526 86 292 2.0 4.0 0.00 0.00 0.00 23 1006.4
20260903003100 87 0 1.0 4.0 0.00 0.00 0.00 23 1006.4
20260903002525 87 276 1.0 7.0 0.00 0.00 0.00 23 1006.4
20260903002027 87 265 1.0 7.0 0.00 0.00 0.00 23 1006.3
20260903001549 87 249 2.0 6.0 0.00 0.00 0.00 23 1006.4
20260903001026 86 258 1.0 7.0 0.00 0.00 0.00 22 1006.4
20260903000526 86 250 2.0 7.0 0.00 0.00 0.00 22 1006.4
20260903000049 86 264 3.0 7.0 0.00 0.00 0.00 22 1006.4
20260902235526 87 263 1.0 4.0 0.00 0.00 0.00 20 1006.5
20260902235029 87 258 0.0 4.0 0.00 0.00 0.00 19 1006.5
20260902234559 88 0 0.0 4.0 0.00 0.00 0.00 19 1006.5
20260902234028 88 286 1.0 3.0 0.00 0.00 0.00 20 1006.6
20260902233528 88 291 1.0 6.0 0.00 0.00 0.00 19 1006.6
20260902233051 89 292 2.0 9.0 0.00 0.00 0.00 18 1006.4
20260902232529 89 342 1.0 10.0 0.00 0.00 0.00 18 1006.6
20260902232025 89 325 3.0 10.0 0.00 0.00 0.00 17 1006.6
20260902231552 89 300 2.0 9.0 0.00 0.00 0.00 19 1006.6
20260902231025 89 297 2.0 9.0 0.00 0.00 0.00 18 1006.5
20260902230535 89 360 3.0 9.0 0.00 0.00 0.00 18 1006.5
20260902230051 89 282 4.0 9.0 0.00 0.00 0.00 18 1006.6
20260902225526 90 309 3.0 8.0 0.00 0.00 0.00 17 1006.6
20260902225026 89 271 3.0 9.0 0.00 0.00 0.00 19 1006.6
20260902224549 89 23 2.0 9.0 0.00 0.00 0.00 20 1006.7
20260902224027 89 55 4.0 7.0 0.00 0.00 0.00 19 1006.7
20260902223531 89 64 1.0 11.0 0.00 0.00 0.00 19 1006.6
20260902223047 88 223 2.0 11.0 0.00 0.00 0.00 21 1006.7
20260902222527 88 236 2.0 5.0 0.00 0.00 0.00 19 1006.7
20260902222029 88 0 1.0 6.0 0.00 0.00 0.00 20 1006.7
20260902221554 88 46 1.0 6.0 0.00 0.00 0.00 21 1006.9
20260902221028 88 107 1.0 7.0 0.00 0.00 0.00 20 1006.8
20260902220526 87 49 4.0 7.0 0.00 0.00 0.00 20 1006.9
20260902220056 86 49 0.0 3.0 0.00 0.00 0.00 21 1007.0
20260902215529 86 49 1.0 6.0 0.00 0.00 0.00 20 1007.1
20260902215025 86 49 1.0 10.0 0.00 0.00 0.00 19 1007.1
20260902214551 86 65 4.0 12.0 0.00 0.00 0.00 19 1007.1
20260902214026 87 53 6.0 12.0 0.00 0.00 0.00 20 1007.1
20260902213528 87 37 3.0 11.0 0.00 0.00 0.00 20 1007.0
20260902213103 87 44 3.0 7.0 0.00 0.00 0.00 20 1007.1
20260902212528 87 61 1.0 5.0 0.00 0.00 0.00 19 1007.2
20260902212027 88 0 1.0 7.0 0.00 0.00 0.00 19 1007.1
20260902211551 88 279 3.0 7.0 0.00 0.00 0.00 19 1007.2
20260902211027 87 267 1.0 8.0 0.00 0.00 0.00 21 1007.2
20260902210527 87 302 3.0 8.0 0.00 0.00 0.00 21 1007.3
20260902210050 87 290 3.0 7.0 0.00 0.00 0.00 20 1007.3
20260902205529 88 274 1.0 4.0 0.00 0.00 0.00 21 1007.3
20260902205025 89 288 1.0 5.0 0.00 0.00 0.00 19 1007.4
20260902204548 89 281 1.0 7.0 0.00 0.00 0.00 18 1007.4
20260902204025 90 290 3.0 7.0 0.00 0.00 0.00 18 1007.5
20260902203529 89 276 2.0 7.0 0.00 0.00 0.00 19 1007.4
20260902203058 89 333 1.0 7.0 0.00 0.00 0.00 18 1007.5
20260902202528 90 263 2.0 9.0 0.00 0.00 0.00 16 1007.5
20260902202025 90 285 1.0 12.0 0.00 0.00 0.00 17 1007.6
20260902201554 89 337 3.0 12.0 0.00 0.00 0.00 18 1007.5
20260902201027 89 49 4.0 10.0 0.00 0.00 0.00 19 1007.7
20260902200526 89 80 4.0 10.0 0.00 0.00 0.00 17 1007.7
20260902200055 88 50 3.0 9.0 0.00 0.00 0.00 18 1007.7
20260902195528 88 50 3.0 11.0 0.00 0.00 0.00 19 1007.8
20260902195029 89 65 3.0 11.0 0.00 0.00 0.00 18 1007.9
20260902194545 89 350 4.0 11.0 0.00 0.00 0.00 18 1007.9
20260902194029 89 309 4.0 9.0 0.00 0.00 0.00 18 1008.0
20260902193528 89 311 3.0 9.0 0.00 0.00 0.00 17 1008.2